CST,Max TemperatureF,Mean TemperatureF,Min TemperatureF,Max Dew PointF,MeanDew PointF,Min DewpointF,Max Humidity, Mean Humidity, Min Humidity, Max Sea Level PressureIn, Mean Sea Level PressureIn, Min Sea Level PressureIn, Max VisibilityMiles, Mean VisibilityMiles, Min VisibilityMiles, Max Wind SpeedMPH, Mean Wind SpeedMPH, Max Gust SpeedMPH,PrecipitationIn, CloudCover, Events, WindDirDegrees
2013-1-1,41,39,37,39,37,31,100,92,79,30.22,30.13,30.04,10,4,0,7,1,,0.00,8,Fog,3
2013-1-2,37,32,26,32,29,24,93,86,70,30.30,30.26,30.22,10,7,2,5,1,,0.00,5,,46
2013-1-3,45,33,21,29,25,18,92,79,52,30.45,30.39,30.29,10,7,4,6,1,,0.00,0,,281
2013-1-4,46,34,21,31,25,19,92,77,40,30.51,30.43,30.37,10,8,5,6,1,,0.00,1,,255
2013-1-5,51,40,28,34,31,25,96,73,46,30.37,30.29,30.21,10,10,8,7,1,,0.00,6,,192
2013-1-6,53,40,27,34,28,24,93,73,37,30.38,30.30,30.24,10,8,2,12,2,,0.00,0,,317
2013-1-7,50,36,21,30,25,18,92,74,39,30.42,30.31,30.19,10,10,9,7,1,,0.00,0,,100
2013-1-8,53,40,27,45,37,24,96,81,50,30.22,30.17,30.10,10,7,2,7,1,,0.15,6,Rain,97
2013-1-9,57,52,46,51,47,45,100,90,69,30.32,30.25,30.18,10,4,1,13,2,23,0.34,8,Rain,61
2013-1-10,61,56,48,59,54,46,100,92,83,30.19,29.94,29.83,10,5,0,10,5,20,0.07,7,Fog-Rain,98
2013-1-11,68,54,39,48,45,39,100,81,42,29.95,29.89,29.83,10,9,2,8,3,18,0.01,0,,165
2013-1-12,60,50,39,59,52,36,100,94,81,29.89,29.77,29.65,10,5,0,17,3,28,5.20,7,Fog-Rain-Thunderstorm,331
2013-1-13,43,36,28,36,30,19,87,73,57,30.32,30.08,29.87,10,10,10,14,8,22,0.00,5,,333
2013-1-14,39,30,21,23,18,15,89,65,49,30.45,30.36,30.31,10,10,10,9,5,,0.00,1,,20
2013-1-15,33,27,21,28,23,14,93,79,54,30.35,30.23,30.15,10,6,0,8,4,,0.01,7,Fog-Snow,340
2013-1-16,46,35,24,29,23,14,91,70,28,30.24,30.17,30.11,10,10,4,9,3,,0.03,2,,311
2013-1-17,55,41,27,33,27,23,92,63,37,30.51,30.34,30.20,10,10,10,12,3,,0.00,1,,339
2013-1-18,55,40,25,32,27,22,92,67,35,30.55,30.44,30.29,10,10,8,5,1,,0.00,0,,107
2013-1-19,64,46,28,38,31,25,92,64,34,30.28,30.21,30.11,10,10,10,10,2,16,0.00,0,,194
2013-1-20,60,45,30,38,32,28,92,67,33,30.28,30.19,30.13,10,10,4,8,1,,0.00,1,,105
2013-1-21,50,39,28,33,19,12,73,46,25,30.37,30.29,30.18,10,10,10,10,4,,0.00,1,,27
2013-1-22,41,32,24,22,20,17,81,60,43,30.41,30.34,30.29,10,10,10,9,2,,0.00,2,,92
2013-1-23,59,44,28,39,29,22,89,67,41,30.32,30.24,30.15,10,10,9,4,0,,0.00,2,,115
2013-1-24,46,39,32,39,24,17,93,58,40,30.38,30.28,30.19,10,10,7,10,5,17,0.00,7,,91
2013-1-25,48,40,32,38,32,22,93,82,64,30.25,30.18,30.12,10,6,2,8,2,,0.00,5,,325
2013-1-26,52,40,28,37,30,25,100,73,35,30.32,30.25,30.20,10,6,0,6,1,,0.00,5,Fog,122
2013-1-27,60,53,46,55,46,34,93,81,61,30.20,30.12,30.01,10,8,2,6,3,,0.00,8,Rain,102
2013-1-28,71,64,57,63,60,56,97,82,73,30.05,29.98,29.91,10,9,2,8,2,,0.01,8,,151
2013-1-29,69,62,55,64,59,49,100,89,73,29.90,29.65,29.52,10,6,2,12,6,18,1.11,8,Rain-Thunderstorm,182
2013-1-30,52,42,32,49,33,25,93,70,51,30.07,29.77,29.51,10,10,10,23,10,33,0.00,4,,277
2013-1-31,57,42,26,30,25,13,92,60,28,30.34,30.13,30.06,10,9,5,15,4,24,0.00,1,,320